This is the latest recevied weather packets stored in our database for station/object SM6LNJ-13. If no packets are shown the sender has not sent any weather packets the latest 10 day(s).
| Time | Temp. | Humidity | Pressure | Rain* | Wind** | Luminosity | Snow |
|---|---|---|---|---|---|---|---|
| 1777993906 | 13.89° C | 40% | 1428.3 hPa | 0 mm | - | - | - |
| 1777977586 | 12.22° C | 45% | 1424.6 hPa | 0 mm | - | - | - |
| 1777974586 | 11.67° C | 46% | 1423.5 hPa | 0 mm | - | - | - |
| 1777960426 | 7.78° C | 56% | 1413.4 hPa | 0 mm | - | - | - |
| 1777924306 | 10° C | 83% | 1419 hPa | 0 mm | - | - | - |
| 1777908113 | 15° C | 62% | 1430.9 hPa | 0 mm | - | - | - |
| 1777907993 | 15° C | 62% | 1430.6 hPa | 0 mm | - | - | - |
| 1777907872 | 15° C | 62% | 1430.4 hPa | 0 mm | - | - | - |
| 1777907752 | 14.44° C | 62% | 1430.3 hPa | 0 mm | - | - | - |
| 1777907632 | 14.44° C | 61% | 1430.2 hPa | 0 mm | - | - | - |
| 1777907512 | 15° C | 61% | 1430.6 hPa | 0 mm | - | - | - |
| 1777907272 | 14.44° C | 61% | 1430 hPa | 0 mm | - | - | - |
| 1777907146 | 15° C | 60% | 1430.8 hPa | 0 mm | - | - | - |
| 1777906672 | 15.56° C | 59% | 1431.9 hPa | 0 mm | - | - | - |
| 1777889986 | 13.89° C | 70% | 1428.1 hPa | 0 mm | - | - | - |
| 1777867426 | 8.89° C | 92% | 1416.1 hPa | 0 mm | - | - | - |
| 1777867306 | 8.89° C | 92% | 1416.1 hPa | 0 mm | - | - | - |
| 1777867066 | 8.33° C | 92% | 1415.8 hPa | 0 mm | - | - | - |
| 1777866826 | 8.33° C | 92% | 1415.8 hPa | 0 mm | - | - | - |
| 1777866712 | 8.33° C | 93% | 1415.9 hPa | 0 mm | - | - | - |
| 1777866592 | 8.33° C | 93% | 1415.9 hPa | 0 mm | - | - | - |
| 1777866466 | 8.89° C | 93% | 1416 hPa | 0 mm | - | - | - |
| 1777858666 | 8.89° C | 94% | 1416.8 hPa | 0 mm | - | - | - |
| 1777858546 | 8.89° C | 94% | 1416.8 hPa | 0 mm | - | - | - |
| 1777858066 | 8.89° C | 94% | 1416.7 hPa | 0 mm | - | - | - |
* Rain latest hour (hover to see other rain measurements)
** Current wind speed in m/s (hover to see current wind gust speed)